Weather in Anau

Turkmenistan     37°54′02″N   58°30′17″E
temp.,
°C
wind,
m/s
gust,
m/s
humid.,
%
clouds,
%
prec.,
mm/h
press.,
hPa
HPBL,
m
17 september, fri
fri1723:00+31ese71290 0.0 1004343
02:00+30ese610100 0.0 1003196
05:00+29ese36110 0.0 100395
08:00+30ese23110 0.0 100448
11:00+32nw911190 0.0 1007876
14:00+36nnw55210 0.0 10061868
17:00+36n75240 0.0 10052300
20:00+33nnw67320 0.0 1007829
18 september, sat
sat1823:00+31nw79410 0.0 1008696
02:00+29nw47470 0.0 1009554
05:00+26nw710570 0.0 1010636
08:00+25wnw810580 0.0 1012697
11:00+27nw55480 0.0 1012933
14:00+31nw44390 0.0 10101397
17:00+33nnw443410 0.0 10092133
20:00+31nne563496 0.0 1011720
19 september, sun
sun1923:00+30n342194 0.0 1012511
02:00+29nnw222083 0.0 1012409
05:00+28wnw562281 0.0 1013489
08:00+27wnw56390 0.0 1015881
11:00+29nw54230 0.0 10161161
14:00+31nne22180 0.0 10141742
17:00+32ne32180 0.0 10132128
20:00+30ene44200 0.0 1014706
20 september, mon
mon2023:00+27e47200 0.0 1014399
02:00+25e47200 0.0 1014289
05:00+24e47200 0.0 1014236
08:00+23e47190 0.0 1015250
11:00+29e67140 0.0 1014870
14:00+33e78130 0.0 10121624
17:00+33e77130 0.0 10101783
20:00+30e69160 0.0 1011466
21 september, tue
tue2123:00+27ese510190 0.0 1012377
02:00+25e611210 0.0 1011344
05:00+23e48230 0.0 1011241
08:00+22e47230 0.0 1013238
11:00+28e56150 0.0 1013846
14:00+32e55120 0.0 10111492
17:00+33e44110 0.0 10101752
20:00+30e47130 0.0 1012286